Location: Austin
(30.3000°N, 97.7500°W)
Time: 22:01:25
(UTC-06:00)

CZ-4 R/B - Pass Details

Date: 03 December 2025
Orbit: 675 x 744 km, 98.7° (Epoch: 07 December)

Event Time Altitude Azimuth Distance (km) Brightness Sun altitude
Rises 05:20:29 0° 15° (NNE) 3,047 7.1 -23.5°
Reaches altitude 10° 05:22:44 10° 18° (NNE) 2,122 6.3 -23.0°
Maximum altitude 05:27:21 72° 102° (ESE) 713 3.9 -22.1°
Drops below altitude 10° 05:31:55 10° 187° (S) 2,099 6.3 -21.1°
Sets 05:34:08 0° 189° (S) 3,011 7.2 -20.6°
